Weather History for KLWT - October, 2013

Change the Weather History Date:

Sunday, October 6, 2013

  Actual Average Record
Temperature  
Mean Temperature 52 °F 47 °F  
Max Temperature 70 °F 61 °F 83 °F (1934)
Min Temperature 34 °F 34 °F 15 °F (1941)
Degree Days  
Heating Degree Days 13 18  
Month to date heating degree days 133 102  
Since 1 July heating degree days 396 579  
Cooling Degree Days 0 0  
Month to date cooling degree days 0 0  
Year to date cooling degree days 277 210  
Growing Degree Days 2 (Base 50)    
Moisture  
Dew Point 31 °F    
Average Humidity 56    
Maximum Humidity 89    
Minimum Humidity 22    
Precipitation  
Precipitation 0.00 in 0.04 in 0.62 in (2011)
Month to date precipitation 0.12 0.26  
Year to date precipitation 20.53 14.61  
Snow  
Snow 0.00 in - - ()
Snow Depth 0.00 in    
Sea Level Pressure  
Sea Level Pressure 30.10 in    
Wind  
Wind Speed 6 mph (SSW)    
Max Wind Speed 13 mph    
Max Gust Speed 17 mph    
Visibility 10 miles    
Events      
T = Trace of Precipitation, MM = Missing Value Source: NWS Daily Summary

Daily Weather History Graph

Daily Weather History Graph

Search for Another Location

Airport or City:

Trip Planner

Search our weather history database for the weather conditions in past years. The results will help you decide how hot, cold, wet, or windy it might be!

Date:

Astronomy

Oct. 06, 2013 Rise Set
Actual Time 7:23 AM MDT 6:47 PM MDT
Civil Twilight 6:53 AM MDT 7:17 PM MDT
Nautical Twilight 6:18 AM MDT 7:52 PM MDT
Astronomical Twilight 5:42 AM MDT 8:28 PM MDT
Moon 9:20 AM MDT (10/6) 7:38 PM MDT (10/6)
Length of Visible Light 12h 23m
Length of Day
11h 23m
Waxing Crescent, 4% of the Moon is Illuminated
Oct 6
Waxing Crescent
Oct 11
First Quarter
Oct 18
Full
Oct 26
Last Quarter
Nov 3
New

Hourly Weather History & Observations

Time (MDT) Temp. Windchill Dew Point Humidity Pressure Visibility Wind Dir Wind Speed Gust Speed Precip Events Conditions
12:54 AM 45.0 °F - 32.0 °F 60% 30.17 in 10.0 mi Calm Calm - N/A   Clear
1:54 AM 42.1 °F 39.2 °F 32.0 °F 67% 30.17 in 10.0 mi South 4.6 mph - N/A   Clear
2:54 AM 39.0 °F 36.8 °F 32.0 °F 76% 30.17 in 10.0 mi SSE 3.5 mph - N/A   Clear
3:54 AM 43.0 °F - 32.0 °F 65% 30.14 in 10.0 mi Calm Calm - N/A   Clear
4:54 AM 44.1 °F - 30.9 °F 60% 30.14 in 10.0 mi Calm Calm - N/A   Clear
5:54 AM 35.1 °F 30.1 °F 30.0 °F 82% 30.16 in 10.0 mi ESE 5.8 mph - N/A   Clear
6:54 AM 34.0 °F 28.0 °F 30.0 °F 85% 30.19 in 10.0 mi ESE 6.9 mph - N/A   Clear
7:54 AM 37.0 °F 33.3 °F 30.9 °F 79% 30.18 in 10.0 mi ESE 4.6 mph - N/A   Clear
8:54 AM 46.9 °F - 35.1 °F 63% 30.16 in 10.0 mi Calm Calm - N/A   Clear
9:54 AM 54.0 °F - 33.1 °F 45% 30.15 in 10.0 mi Calm Calm - N/A   Clear
10:54 AM 62.1 °F - 28.9 °F 29% 30.12 in 10.0 mi West 10.4 mph - N/A   Clear
11:54 AM 64.9 °F - 28.9 °F 26% 30.11 in 10.0 mi West 11.5 mph - N/A   Clear
12:54 PM 66.0 °F - 28.9 °F 25% 30.08 in 10.0 mi WNW 9.2 mph - N/A   Clear
1:54 PM 68.0 °F - 28.9 °F 23% 30.06 in 10.0 mi WNW 11.5 mph - N/A   Clear
2:54 PM 68.0 °F - 28.0 °F 22% 30.05 in 10.0 mi NW 4.6 mph - N/A   Clear
3:54 PM 69.1 °F - 28.0 °F 22% 30.02 in 10.0 mi West 5.8 mph - N/A   Clear
4:54 PM 66.9 °F - 30.9 °F 26% 30.02 in 10.0 mi NNW 4.6 mph - N/A   Clear
5:54 PM 64.0 °F - 34.0 °F 33% 30.04 in 9.0 mi Calm Calm - N/A   Clear
6:54 PM 52.0 °F - 36.0 °F 54% 30.08 in 10.0 mi SSW 11.5 mph - N/A   Clear
7:54 PM 51.1 °F - 33.1 °F 50% 30.06 in 10.0 mi SSW 10.4 mph - N/A   Clear
8:54 PM 46.9 °F - 32.0 °F 56% 30.04 in 10.0 mi Variable 3.5 mph - N/A   Clear
9:54 PM 42.1 °F 37.1 °F 33.1 °F 70% 30.03 in 10.0 mi East 8.1 mph - N/A   Clear
10:54 PM 42.1 °F 37.7 °F 30.9 °F 65% 30.00 in 10.0 mi East 6.9 mph - N/A   Clear
11:54 PM 41.0 °F 37.1 °F 30.0 °F 65% 29.97 in 10.0 mi SE 5.8 mph - N/A   Clear